sat.trackr.live / text

‹ back to catalog

ONEWEB-0644

NORAD 55808 · 2023-029N

PAYLOAD ACTIVE UNKNOWN

§ Identity

Operator
Country
UK
Launch date
2023-03-09
Launch site
AFETR
Launch vehicle
Mass (kg)
RCS (m²)

Purposes: comms

External: N2YO · Heavens-Above · Gunter

§ Orbital elements

Epoch: 2026-05-25T04:43:26.461056Z

Period
109.11 min
Inclination
87.9149°
Eccentricity
0.0001437
Mean motion
13.19725737 rev/d
Perigee alt
1,184.7 km
Apogee alt
1,186.9 km
Semi-major
7,563.9 km
B*
-1.5304e-4
RAAN
309.5622°
Arg perigee
92.6911°
Mean anomaly
267.4386°
Rev number
15,587

§ Raw data

ONEWEB-06441 55808U 23029N   26145.19683404 -.00000048  00000+0 -15304-3 0  99942 55808  87.9149 309.5622 0001437  92.6911 267.4386 13.19725737155873

JSON: /api/v1/satellites/55808 · /tle

For live sub-satellite position, see the globe view (requires WebGL).

§ Visibility from observer

Set your observer location to see the next 7 days of passes ≥ 10°. The values pass through the URL so the page stays shareable.

No JS? Fill the form by hand. The geolocation button needs JavaScript.